#timestamp,LO_Frequency,Hit,StdDev 
1520647215.5,286047000.2,P
1520647235.3,286047000.1,N
1520647255.1,286047000.9,P
1520647275.9,286047000.5,N
1520647295.7,286047000.7,N
1520647315.6,286047001.1,Y
1520647335.4,286046998.5,P
1520647355.2,286047000.3,N
1520647375.1,286047002.6,N
1520647376.0,286047002.6,N
1520647395.8,286047002.6,N
1520647415.7,286047002.1,N
1520647435.5,286047001.7,N
1520647455.3,286047001.5,N
1520647475.2,286047004.4,Y
1520647495.0,286046999.8,P
1520647495.9,286046999.8,N
1520647515.8,286047000.3,N
1520647535.6,286047000.0,N
1520647555.4,286047002.7,Y
1520647575.3,286046999.7,P
1520647595.1,286047000.2,N
1520647615.9,286047000.0,N
1520647635.7,286047000.4,N
1520647655.5,286047000.5,N
1520647675.4,286047000.1,N
1520647695.2,286047002.0,Y
1520647715.1,286047002.8,P
1520647716.0,286047002.8,N
1520647735.8,286047002.8,N
1520647755.6,286047002.3,N
1520647775.5,286047002.6,N
1520647795.3,286047002.2,N
1520647815.2,286047001.8,N
1520647835.9,286047002.0,N
1520647855.7,286047001.6,N
1520647875.6,286047002.1,N
1520647895.4,286047002.3,Y
1520647915.3,286046998.8,P
1520647935.1,286046996.5,N
1520647936.0,286046996.5,N
1520647955.8,286046999.3,N
1520647975.7,286046999.5,N
1520647995.5,286046998.8,N
1520648015.4,286047000.8,N
1520648035.2,286047000.9,N
1520648055.0,286047001.0,N
1520648055.9,286047001.0,N
1520648075.8,286047000.0,N
1520648095.6,286047000.7,N
1520648115.4,286047000.8,N
1520648135.3,286046998.3,N
1520648155.1,286046998.6,N
1520648175.9,286047000.8,N
1520648195.7,286046998.3,N
1520648215.5,286046998.6,N
1520648235.4,286047000.4,N
1520648255.2,286047000.1,N
1520648275.0,286047000.3,N
1520648275.9,286047000.3,N
1520648295.8,286047002.6,N
1520648315.6,286047000.1,N
1520648335.5,286047002.7,N
1520648355.3,286047000.0,N
1520648375.1,286047000.2,N
1520648395.9,286046999.8,N
1520648415.7,286047000.3,N
1520648435.5,286047002.5,N
1520648455.4,286047002.7,N
1520648475.2,286047001.5,N
1520648495.1,286047001.8,N
1520648496.0,286047001.8,N
1520648515.8,286047001.6,N
1520648535.6,286047002.2,N
1520648555.5,286047002.1,N
1520648575.3,286047002.4,N
1520648595.2,286047002.4,N
1520648615.9,286047001.8,N
1520648635.7,286047002.6,N
1520648655.6,286047001.6,N
1520648675.4,286047001.3,N
1520648695.2,286047004.2,Y
1520648715.1,286047003.8,P
1520648716.0,286047003.8,N
1520648735.8,286047004.3,P
1520648755.7,286047001.4,N
1520648775.5,286047002.2,N
1520648795.3,286047002.0,N
1520648815.2,286047001.8,N
1520648835.0,286047004.3,Y
1520648835.9,286047004.3,P
1520648855.8,286046998.5,N
1520648875.6,286046998.2,N
1520648895.4,286047000.5,N
1520648915.3,286047001.2,N
1520648935.1,286047000.7,N
1520648955.8,286047000.7,N
1520648975.7,286046999.0,N
1520648995.5,286046998.2,N
1520649015.3,286046998.3,N
1520649035.2,286047001.0,N
1520649055.0,286047001.2,N
1520649055.9,286047001.2,N
1520649075.8,286047000.5,N
1520649095.6,286047000.8,N
1520649115.4,286046998.4,N
1520649135.3,286046998.7,N
1520649155.1,286046998.5,N
1520649175.9,286047000.7,N
1520649195.7,286046998.8,N
1520649215.5,286046998.2,N
1520649235.4,286046998.9,N
1520649255.2,286046998.5,N
1520649275.0,286046998.4,N
1520649276.0,286046998.4,N
1520649295.8,286046998.1,N
1520649315.6,286046999.3,N
1520649335.5,286047001.2,N
1520649355.3,286046998.9,N
1520649375.1,286046997.1,N
1520649395.9,286046999.2,N
1520649415.7,286046998.8,N
1520649435.6,286046996.6,N
1520649455.4,286046999.6,N
1520649475.2,286046999.6,N
1520649495.1,286046999.3,N
1520649496.0,286046999.3,N
1520649515.8,286046999.3,N
1520649535.6,286046996.9,N
1520649555.5,286046998.8,N
1520649575.3,286046999.3,N
1520649595.2,286046998.9,N
1520649615.9,286047000.9,N
1520649635.7,286047000.7,N
1520649655.6,286047001.0,N
1520649675.4,286046998.1,N
1520649695.3,286046999.0,N
1520649715.1,286046998.4,N
1520649716.0,286046998.4,N
1520649735.8,286047000.8,N
1520649755.7,286047000.8,N
1520649775.5,286047000.7,N
1520649795.3,286047000.4,N
1520649815.2,286047001.0,N
1520649835.0,286047001.0,N
1520649835.9,286047001.0,N
1520649855.8,286047002.7,N
1520649875.6,286047000.4,N
1520649895.4,286047000.7,N
1520649915.3,286047000.9,N
1520649935.1,286047001.0,N
1520649955.9,286046999.9,N
1520649975.7,286047001.2,N
1520649995.5,286046998.2,N
1520650015.4,286046996.6,N
1520650035.2,286046999.1,N
1520650055.0,286046998.8,N
1520650056.0,286046998.8,N
1520650075.8,286046998.6,N
1520650095.6,286046999.1,N
1520650115.5,286046998.7,N
1520650135.3,286046997.0,N
1520650155.1,286046996.5,N
1520650175.9,286046998.3,N
1520650195.7,286046998.9,N
1520650215.6,286046998.8,N
1520650235.4,286047001.2,N
1520650255.2,286046998.1,N
1520650275.1,286046998.4,N
1520650276.0,286046998.4,N
1520650295.8,286046998.6,N
1520650315.6,286047001.2,N
1520650335.5,286047000.8,N
1520650355.3,286047000.8,N
1520650375.2,286047001.1,N
1520650395.9,286047001.0,N
1520650415.7,286047001.1,N
1520650435.6,286047000.7,N
1520650455.4,286047001.1,N
1520650475.2,286047000.8,N
1520650495.1,286046998.1,N
1520650496.0,286046998.1,N
1520650515.8,286047001.1,N
1520650535.7,286047000.3,N
1520650555.5,286047000.3,N
1520650575.3,286047002.5,N
1520650595.2,286046999.8,N
1520650615.0,286047000.5,N
1520650615.9,286047000.5,N
1520650635.7,286047000.6,N
1520650655.6,286047001.0,N
1520650675.4,286047000.5,N
1520650695.3,286046999.9,N
1520650715.1,286046999.8,N
1520650735.8,286047000.5,N
1520650755.7,286046999.9,N
1520650775.5,286047001.0,N
1520650795.4,286047000.6,N
